Location: Laan Hart van Zuid
(52.2563°N, 6.7904°E)
Time: 10:10:58
(UTC+02:00)

ISS - Pass Details

Date: 17 May 2024
Orbit: 411 x 419 km, 51.6° (Epoch: 29 May)

Event Time Altitude Azimuth Distance (km) Brightness Sun altitude
Rises 22:26:54 0° 264° (W) 2,373 0.6 -8.0°
Reaches altitude 10° 22:29:00 10° 263° (W) 1,507 -0.4 -8.2°
Maximum altitude 22:32:23 81° 177° (S) 431 -3.8 -8.5°
Drops below altitude 10° 22:35:46 10° 89° (E) 1,502 -1.3 -8.9°
Enters shadow 22:37:09 - 89° (E) 2,075 -0.6 -9.0°
